When you browse on this site, cookies collect data to enhance your experience and personalize the content and advertising you see.
Visit our Privacy Policy to learn more. By continuing to use the site, you agree to this use of cookies and data.
  • Em Portugal
  • Lista de países
  • Para 7 dias
  • Temperatura da água
  • Mapas de satélite
  • Mapa do tempo
  • Widgets de tempo
  • user-avatar
    Iniciar Sessão

    Previsão horária em Ozery

    Hoje, 16 Fevereiro, Sábado

    Tempo Temperatura Precipitação Vento Pressão Humidade
    00:00 -1°C° 0 mm 5 m/s 749 mmHg 95%
    01:00 -1°C° 0 mm 5 m/s 748 mmHg 95%
    02:00 -1°C° 0 mm 4 m/s 748 mmHg 97%
    03:00 -1°C° 0 mm 4 m/s 748 mmHg 97%
    04:00 -1°C° 0 mm 4 m/s 748 mmHg 97%
    05:00 -1°C° 0 mm 4 m/s 748 mmHg 97%
    06:00 -1°C° 0 mm 4 m/s 748 mmHg 97%
    07:00 -1°C° 0 mm 4 m/s 748 mmHg 97%
    08:00 -1°C° 0 mm 4 m/s 748 mmHg 96%
    09:00 -1°C° 0 mm 4 m/s 748 mmHg 97%
    10:00 -1°C° 0 mm 4 m/s 747 mmHg 98%
    11:00 -1°C° 0 mm 5 m/s 747 mmHg 99%
    12:00 -1°C° 0 mm 5 m/s 747 mmHg 99%
    13:00 -1°C° 0 mm 5 m/s 747 mmHg 99%
    14:00 -1°C° 0 mm 4 m/s 747 mmHg 99%
    15:00 -1°C° 0 mm 4 m/s 747 mmHg 97%
    16:00 -1°C° 0 mm 4 m/s 746 mmHg 94%
    17:00 -1°C° 0 mm 4 m/s 746 mmHg 91%
    18:00 -1°C° 0 mm 4 m/s 746 mmHg 89%
    19:00 -2°C° 0 mm 5 m/s 745 mmHg 87%
    20:00 -2°C° 0 mm 5 m/s 745 mmHg 85%
    21:00 -2°C° 0 mm 5 m/s 744 mmHg 84%
    22:00 -2°C° 0 mm 5 m/s 744 mmHg 82%
    23:00 -2°C° 0 mm 5 m/s 743 mmHg 80%

    Amanhã, 17 Fevereiro, Domingo

    Tempo Temperatura Precipitação Vento Pressão Humidade
    00:00 -2°C° 0 mm 5 m/s 743 mmHg 80%
    01:00 -3°C° 0 mm 6 m/s 742 mmHg 80%
    02:00 -3°C° 0 mm 6 m/s 742 mmHg 80%
    03:00 -3°C° 0 mm 6 m/s 741 mmHg 81%
    04:00 -3°C° 0 mm 6 m/s 741 mmHg 82%
    05:00 -3°C° 0 mm 6 m/s 740 mmHg 83%
    06:00 -3°C° 0 mm 6 m/s 740 mmHg 85%
    07:00 -2°C° 0 mm 6 m/s 740 mmHg 87%
    08:00 -2°C° 0 mm 6 m/s 740 mmHg 89%
    09:00 -2°C° 0 mm 6 m/s 741 mmHg 92%
    10:00 -2°C° 0 mm 6 m/s 741 mmHg 94%
    11:00 -1°C° 0 mm 6 m/s 741 mmHg 97%
    12:00 -1°C° 0 mm 6 m/s 741 mmHg 97%
    13:00 -1°C° 0 mm 6 m/s 741 mmHg 97%
    14:00 -1°C° 0 mm 6 m/s 741 mmHg 97%
    15:00 -1°C° 0 mm 6 m/s 742 mmHg 92%
    16:00 -1°C° 0 mm 6 m/s 742 mmHg 87%
    17:00 -2°C° 0 mm 6 m/s 742 mmHg 82%
    18:00 -2°C° 0 mm 6 m/s 743 mmHg 82%
    19:00 -3°C° 0 mm 6 m/s 743 mmHg 82%
    20:00 -4°C° 0 mm 6 m/s 744 mmHg 82%
    21:00 -4°C° 0 mm 5 m/s 744 mmHg 83%
    22:00 -5°C° 0 mm 5 m/s 744 mmHg 85%
    23:00 -4°C° 0 mm 4 m/s 745 mmHg 87%

    Depois de amanhã, 18 Fevereiro, Segunda-feira

    Tempo Temperatura Precipitação Vento Pressão Humidade
    00:00 -4°C° 0 mm 4 m/s 745 mmHg 88%
    01:00 -5°C° 0 mm 4 m/s 746 mmHg 89%
    02:00 -5°C° 0 mm 4 m/s 746 mmHg 90%
    03:00 -5°C° 0 mm 4 m/s 747 mmHg 90%
    04:00 -7°C° 0 mm 4 m/s 747 mmHg 91%
    05:00 -6°C° 0 mm 3 m/s 747 mmHg 91%
    06:00 -6°C° 0 mm 3 m/s 748 mmHg 91%
    07:00 -6°C° 0 mm 3 m/s 748 mmHg 91%
    08:00 -7°C° 0 mm 3 m/s 748 mmHg 92%
    09:00 -6°C° 0 mm 3 m/s 749 mmHg 89%
    10:00 -5°C° 0 mm 3 m/s 749 mmHg 85%
    11:00 -4°C° 0 mm 3 m/s 749 mmHg 82%
    12:00 -3°C° 0 mm 2 m/s 750 mmHg 81%
    13:00 -2°C° 0 mm 2 m/s 750 mmHg 80%
    14:00 -2°C° 0 mm 2 m/s 750 mmHg 79%
    15:00 -3°C° 0 mm 2 m/s 750 mmHg 80%
    16:00 -1°C° 0 mm 1 m/s 750 mmHg 82%
    17:00 -2°C° 0 mm 1 m/s 750 mmHg 83%
    18:00 -3°C° 0 mm 1 m/s 750 mmHg 83%
    19:00 -4°C° 0 mm 0 m/s 750 mmHg 82%
    20:00 -4°C° 0 mm 0 m/s 750 mmHg 82%
    21:00 -3°C° 0 mm 1 m/s 750 mmHg 82%
    22:00 -3°C° 0 mm 1 m/s 750 mmHg 83%
    23:00 -6°C° 0 mm 2 m/s 750 mmHg 83%

    19 Fevereiro, Terça-feira

    Tempo Temperatura Precipitação Vento Pressão Humidade
    00:00 -6°C° 0 mm 2 m/s 750 mmHg 84%
    01:00 -7°C° 0 mm 3 m/s 750 mmHg 85%
    02:00 -7°C° 0 mm 3 m/s 750 mmHg 85%
    03:00 -7°C° 0 mm 3 m/s 750 mmHg 85%
    04:00 -8°C° 0 mm 4 m/s 749 mmHg 85%
    05:00 -8°C° 0 mm 4 m/s 749 mmHg 85%
    06:00 -8°C° 0 mm 4 m/s 749 mmHg 84%
    07:00 -8°C° 0 mm 4 m/s 748 mmHg 84%
    08:00 -7°C° 0 mm 4 m/s 748 mmHg 83%
    09:00 -6°C° 0 mm 5 m/s 748 mmHg 81%
    10:00 -5°C° 0 mm 5 m/s 748 mmHg 78%
    11:00 -4°C° 0 mm 5 m/s 747 mmHg 75%
    12:00 -3°C° 0 mm 6 m/s 747 mmHg 75%
    13:00 -3°C° 0 mm 6 m/s 746 mmHg 75%
    14:00 -2°C° 0 mm 6 m/s 746 mmHg 75%
    15:00 -2°C° 0 mm 6 m/s 745 mmHg 75%
    16:00 -3°C° 0 mm 6 m/s 744 mmHg 74%
    17:00 -3°C° 0 mm 6 m/s 744 mmHg 74%
    18:00 -3°C° 0 mm 6 m/s 743 mmHg 75%
    19:00 -3°C° 0 mm 6 m/s 743 mmHg 76%
    20:00 -3°C° 0 mm 6 m/s 742 mmHg 76%
    21:00 -3°C° 0 mm 6 m/s 742 mmHg 80%
    22:00 -3°C° 0 mm 6 m/s 741 mmHg 83%
    23:00 -3°C° 0 mm 6 m/s 741 mmHg 87%

    20 Fevereiro, Quarta-feira

    Tempo Temperatura Precipitação Vento Pressão Humidade
    00:00 -3°C° 0 mm 6 m/s 740 mmHg 89%
    01:00 -2°C° 0 mm 6 m/s 740 mmHg 91%
    02:00 -2°C° 0 mm 6 m/s 739 mmHg 94%
    03:00 -2°C° 0 mm 6 m/s 739 mmHg 94%
    04:00 -2°C° 0 mm 6 m/s 738 mmHg 94%
    05:00 -2°C° 0 mm 6 m/s 737 mmHg 94%
    06:00 -2°C° 0.4 mm 6 m/s 737 mmHg 94%
    07:00 -2°C° 0.4 mm 6 m/s 737 mmHg 94%
    08:00 -1°C° 0.4 mm 5 m/s 737 mmHg 94%
    09:00 0°C° 0 mm 5 m/s 737 mmHg 94%
    10:00 0°C° 0 mm 5 m/s 738 mmHg 94%
    11:00 0°C° 0 mm 5 m/s 738 mmHg 94%
    12:00 0°C° 0.1 mm 5 m/s 738 mmHg 93%
    13:00 +1°C° 0.1 mm 6 m/s 737 mmHg 93%
    14:00 +1°C° 0.1 mm 6 m/s 737 mmHg 92%
    15:00 -1°C° 0.1 mm 6 m/s 737 mmHg 91%
    16:00 -1°C° 0.1 mm 6 m/s 737 mmHg 90%
    17:00 -1°C° 0.1 mm 6 m/s 737 mmHg 89%
    18:00 -1°C° 0.3 mm 6 m/s 737 mmHg 87%
    19:00 -1°C° 0.3 mm 7 m/s 737 mmHg 86%
    20:00 -1°C° 0.3 mm 7 m/s 737 mmHg 84%
    21:00 -2°C° 0 mm 7 m/s 737 mmHg 82%
    22:00 -3°C° 0 mm 7 m/s 738 mmHg 80%
    23:00 -3°C° 0 mm 7 m/s 738 mmHg 78%

    21 Fevereiro, Quinta-feira

    Tempo Temperatura Precipitação Vento Pressão Humidade
    00:00 -3°C° 0 mm 7 m/s 738 mmHg 79%
    01:00 -3°C° 0 mm 7 m/s 738 mmHg 80%
    02:00 -3°C° 0 mm 7 m/s 739 mmHg 81%
    03:00 -4°C° 0 mm 7 m/s 739 mmHg 81%
    04:00 -4°C° 0 mm 7 m/s 739 mmHg 81%
    05:00 -4°C° 0 mm 7 m/s 739 mmHg 81%
    06:00 -6°C° 0 mm 7 m/s 740 mmHg 77%
    07:00 -7°C° 0 mm 8 m/s 741 mmHg 74%
    08:00 -7°C° 0 mm 8 m/s 741 mmHg 71%
    09:00 -8°C° 0 mm 8 m/s 742 mmHg 68%
    10:00 -8°C° 0 mm 8 m/s 742 mmHg 66%
    11:00 -8°C° 0 mm 7 m/s 743 mmHg 64%
    12:00 -8°C° 0 mm 7 m/s 743 mmHg 64%
    13:00 -8°C° 0 mm 7 m/s 744 mmHg 63%
    14:00 -8°C° 0 mm 7 m/s 744 mmHg 62%
    15:00 -8°C° 0 mm 7 m/s 745 mmHg 64%
    16:00 -8°C° 0 mm 6 m/s 745 mmHg 65%
    17:00 -7°C° 0 mm 5 m/s 745 mmHg 66%
    18:00 -8°C° 0 mm 5 m/s 746 mmHg 68%
    19:00 -8°C° 0 mm 4 m/s 746 mmHg 70%
    20:00 -8°C° 0 mm 4 m/s 747 mmHg 72%
    21:00 -9°C° 0 mm 4 m/s 747 mmHg 74%
    22:00 -8°C° 0 mm 3 m/s 747 mmHg 75%
    23:00 -8°C° 0 mm 3 m/s 747 mmHg 77%
    Mostrar mais